FW7886 Weather Reports


time (UTC)temp
C
wind
direction
speed
KPH
gust
KPH
rain 1hr
cm
rain 24hr
cm
rain mn
cm
humidity
%
barometer
mb
20260505022540 20 43 3.2 4.8 0.00 0.00 0.00 71 1012.5
20260505022038 20 43 3.2 4.8 0.00 0.00 0.00 71 1012.2
20260505021540 20 43 1.6 8.0 0.00 0.00 0.00 70 1012.4
20260505021040 20 43 1.6 8.0 0.00 0.00 0.00 70 1012.5
20260505020538 20 43 1.6 6.4 0.00 0.00 0.00 70 1012.5
20260505020040 20 43 1.6 4.8 0.00 0.00 0.00 71 1012.4
20260505015539 21 43 1.6 8.0 0.00 0.00 0.00 68 1012.6
20260505015042 21 43 1.6 8.0 0.00 0.00 0.00 69 1012.3
20260505014801 21 43 1.6 6.4 0.00 0.00 0.00 68 1012.4
20260505014040 21 43 1.6 6.4 0.00 0.00 0.00 67 1012.6
20260505013534 21 43 1.6 6.4 0.00 0.00 0.00 67 1012.3
20260505013028 21 43 1.6 6.4 0.00 0.00 0.00 67 1012.3
20260505012741 21 43 3.2 6.4 0.00 0.00 0.00 66 1012.2
20260505012239 21 43 3.2 6.4 0.00 0.00 0.00 65 1012.2
20260505011509 21 43 3.2 6.4 0.00 0.00 0.00 66 1012.1
20260505011004 21 43 3.2 8.0 0.00 0.00 0.00 65 1012.3
20260505010458 21 43 3.2 8.0 0.00 0.00 0.00 64 1012.2
20260505005950 22 43 3.2 6.4 0.00 0.00 0.00 63 1012.2
20260505005444 22 43 3.2 8.0 0.00 0.00 0.00 63 1012.3
20260505005158 22 43 3.2 8.0 0.00 0.00 0.00 62 1012.2
20260505004444 22 43 4.8 8.0 0.00 0.00 0.00 61 1012.0
20260505003944 22 43 4.8 9.7 0.00 0.00 0.00 60 1012.1
20260505003441 22 43 3.2 9.7 0.00 0.00 0.00 60 1012.1
20260505002940 22 43 3.2 9.7 0.00 0.00 0.00 59 1012.3
20260505002441 23 43 3.2 9.7 0.00 0.00 0.00 57 1012.3
20260505001940 23 43 3.2 8.0 0.00 0.00 0.00 57 1012.5
20260505001440 23 43 3.2 9.7 0.00 0.00 0.00 57 1012.4
20260505001203 23 43 4.8 9.7 0.00 0.00 0.00 55 1012.5
20260505000442 23 43 4.8 9.7 0.00 0.00 0.00 54 1012.5
20260504235938 23 43 4.8 11.3 0.00 0.00 0.00 53 1012.8
20260504235702 23 43 4.8 11.3 0.00 0.00 0.00 52 1012.8
20260504234938 24 43 4.8 11.3 0.00 0.00 0.00 52 1012.8
20260504234440 23 43 4.8 12.9 0.00 0.00 0.00 52 1012.9
20260504233939 23 43 6.4 17.7 0.00 0.00 0.00 52 1012.8
20260504233439 24 43 4.8 17.7 0.00 0.00 0.00 53 1012.9
20260504232933 24 43 4.8 9.7 0.00 0.00 0.00 53 1012.9
20260504232427 24 43 4.8 14.5 0.00 0.00 0.00 52 1012.9
20260504231921 24 43 4.8 14.5 0.00 0.00 0.00 53 1013.0
20260504231414 25 104 6.4 14.5 0.00 0.00 0.00 51 1013.0
20260504230909 25 235 6.4 16.1 0.00 0.00 0.00 51 1013.0
20260504230402 25 271 6.4 16.1 0.00 0.00 0.00 51 1013.0
20260504225857 25 44 6.4 14.5 0.00 0.00 0.00 54 1013.0
20260504225608 25 47 6.4 14.5 0.00 0.00 0.00 50 1013.0
20260504224844 25 43 6.4 14.5 0.00 0.00 0.00 49 1013.0
20260504224339 25 43 4.8 12.9 0.00 0.00 0.00 49 1013.1
20260504223834 25 43 6.4 11.3 0.00 0.00 0.00 50 1013.2
20260504223327 25 43 6.4 14.5 0.00 0.00 0.00 48 1013.2
20260504223047 25 45 6.4 14.5 0.00 0.00 0.00 50 1013.2
20260504222537 25 44 6.4 16.1 0.00 0.00 0.00 50 1013.1
20260504222259 25 263 4.8 16.1 0.00 0.00 0.00 49 1013.2
20260504221303 25 244 6.4 16.1 0.00 0.00 0.00 48 1013.4
20260504220757 25 246 6.4 16.1 0.00 0.00 0.00 48 1013.3
20260504220251 25 47 6.4 11.3 0.00 0.00 0.00 47 1013.5
20260504215745 25 48 6.4 11.3 0.00 0.00 0.00 48 1013.5
20260504215239 25 48 6.4 11.3 0.00 0.00 0.00 48 1013.5
20260504214734 25 255 6.4 14.5 0.00 0.00 0.00 49 1013.6
20260504214227 25 286 6.4 17.7 0.00 0.00 0.00 48 1013.6
20260504213943 25 39 6.4 17.7 0.00 0.00 0.00 50 1013.6
20260504213215 25 45 6.4 12.9 0.00 0.00 0.00 50 1013.7
20260504212708 25 45 6.4 14.5 0.00 0.00 0.00 48 1013.7
20260504212203 25 48 6.4 14.5 0.00 0.00 0.00 49 1013.7
20260504211656 25 42 6.4 14.5 0.00 0.00 0.00 50 1013.7
20260504211151 25 42 6.4 17.7 0.00 0.00 0.00 50 1013.7
20260504210644 25 42 6.4 17.7 0.00 0.00 0.00 49 1013.8
20260504210145 25 313 6.4 16.1 0.00 0.00 0.00 49 1013.8
20260504205645 25 42 4.8 14.5 0.00 0.00 0.00 49 1013.9
20260504205148 25 42 6.4 14.5 0.00 0.00 0.00 49 1014.2
20260504204644 25 135 6.4 17.7 0.00 0.00 0.00 50 1014.2
20260504204407 25 287 8.0 17.7 0.00 0.00 0.00 51 1014.2
20260504203904 25 40 8.0 14.5 0.00 0.00 0.00 50 1014.1
20260504203144 25 240 6.4 14.5 0.00 0.00 0.00 50 1014.4
20260504202643 25 47 6.4 12.9 0.00 0.00 0.00 48 1014.6
20260504202143 25 48 6.4 12.9 0.00 0.00 0.00 52 1014.6
20260504201642 25 43 6.4 14.5 0.00 0.00 0.00 49 1014.6
20260504201142 25 44 8.0 14.5 0.00 0.00 0.00 49 1014.7
20260504200642 25 44 8.0 14.5 0.00 0.00 0.00 48 1014.7
20260504200633 25 44 6.4 14.5 0.00 0.00 0.00 49 1014.8
20260504195904 25 44 6.4 14.5 0.00 0.00 0.00 51 1014.8
20260504195144 25 45 6.4 14.5 0.00 0.00 0.00 50 1014.9
20260504194905 25 45 6.4 14.5 0.00 0.00 0.00 51 1015.2
20260504194406 25 45 6.4 14.5 0.00 0.00 0.00 50 1015.2
20260504193636 25 261 8.0 17.7 0.00 0.00 0.00 51 1015.3
20260504193131 25 270 9.7 17.7 0.00 0.00 0.00 51 1015.4
20260504192625 25 262 8.0 19.3 0.00 0.00 0.00 50 1015.4
20260504192125 25 250 8.0 19.3 0.00 0.00 0.00 53 1015.6
20260504191625 25 43 6.4 16.1 0.00 0.00 0.00 51 1015.5
20260504191125 25 11 6.4 17.7 0.00 0.00 0.00 50 1015.6
20260504190622 25 281 6.4 17.7 0.00 0.00 0.00 48 1015.5
20260504190122 25 272 6.4 17.7 0.00 0.00 0.00 48 1015.5
20260504185622 25 256 6.4 17.7 0.00 0.00 0.00 50 1015.5
20260504185124 25 44 6.4 16.1 0.00 0.00 0.00 49 1015.7
20260504184622 25 44 4.8 14.5 0.00 0.00 0.00 49 1015.7
20260504184120 25 40 4.8 11.3 0.00 0.00 0.00 49 1015.7
20260504183619 25 292 4.8 17.7 0.00 0.00 0.00 48 1015.7
20260504183343 25 98 6.4 17.7 0.00 0.00 0.00 49 1015.8
20260504182617 25 48 6.4 12.9 0.00 0.00 0.00 49 1015.8
20260504182117 25 48 6.4 12.9 0.00 0.00 0.00 50 1015.8
20260504181616 25 49 4.8 11.3 0.00 0.00 0.00 49 1015.9
20260504181115 25 124 4.8 11.3 0.00 0.00 0.00 48 1016.0
20260504180613 25 48 6.4 14.5 0.00 0.00 0.00 47 1016.1
20260504180329 24 47 6.4 14.5 0.00 0.00 0.00 50 1016.3
20260504175611 25 7 6.4 12.9 0.00 0.00 0.00 49 1016.3
20260504175108 24 42 6.4 14.5 0.00 0.00 0.00 49 1016.2
20260504174830 24 42 6.4 14.5 0.00 0.00 0.00 50 1016.2
20260504174109 24 43 6.4 14.5 0.00 0.00 0.00 52 1016.3
20260504173607 24 43 6.4 16.1 0.00 0.00 0.00 50 1016.3
20260504173326 24 43 6.4 16.1 0.00 0.00 0.00 49 1016.5
20260504172609 24 43 6.4 14.5 0.00 0.00 0.00 49 1016.5
20260504172108 24 247 6.4 14.5 0.00 0.00 0.00 49 1016.5
20260504171609 24 306 6.4 16.1 0.00 0.00 0.00 48 1016.7
20260504171327 24 40 6.4 16.1 0.00 0.00 0.00 50 1016.7
20260504170609 24 262 6.4 14.5 0.00 0.00 0.00 49 1016.6
20260504170108 24 317 6.4 14.5 0.00 0.00 0.00 51 1016.7
20260504160105 23 273 8.0 19.3 0.00 0.00 0.00 50 1017.3
20260504151102 23 45 4.8 11.3 0.00 0.00 0.00 57 1017.5
20260504150557 22 45 4.8 11.3 0.00 0.00 0.00 57 1017.5
20260504140951 21 45 1.6 4.8 0.00 0.00 0.00 73 1017.3
20260504140703 21 45 1.6 4.8 0.00 0.00 0.00 73 1017.5
20260504130332 18 45 0.0 0.0 0.00 0.00 0.00 85 1017.4
20260504120221 11 45 0.0 0.0 0.00 0.00 0.00 98 1017.0
20260504110614 12 45 0.0 1.6 0.00 0.00 0.00 98 1016.5
20260504110109 11 45 0.0 0.0 0.00 0.00 0.00 97 1016.4
20260504100504 12 45 0.0 0.0 0.00 0.00 0.00 95 1016.5
20260504081914 13 45 0.0 1.6 0.00 0.00 0.00 89 1016.9
20260504081414 13 45 0.0 0.0 0.00 0.00 0.00 90 1016.9
20260504080911 13 45 0.0 0.0 0.00 0.00 0.00 90 1017.0
20260504080411 13 45 0.0 0.0 0.00 0.00 0.00 90 1016.8
20260504070406 15 45 0.0 1.6 0.00 0.00 0.00 84 1017.2
20260504050716 16 45 0.0 1.6 0.00 0.00 0.00 82 1018.1
20260504050210 16 45 0.0 1.6 0.00 0.00 0.00 82 1018.0
20260504045704 16 45 0.0 1.6 0.00 0.00 0.00 80 1018.1
20260504045200 16 45 0.0 1.6 0.00 0.00 0.00 80 1018.1
20260504044702 17 45 0.0 3.2 0.00 0.00 0.00 79 1018.2
20260504044200 17 45 0.0 3.2 0.00 0.00 0.00 79 1018.2
20260504043659 17 45 0.0 1.6 0.00 0.00 0.00 78 1018.2
20260504043200 17 45 0.0 1.6 0.00 0.00 0.00 78 1018.2
20260504042658 17 45 0.0 3.2 0.00 0.00 0.00 77 1018.3
20260504042158 17 45 1.6 4.8 0.00 0.00 0.00 77 1018.3
20260504041923 17 45 1.6 4.8 0.00 0.00 0.00 77 1018.2
20260504041201 17 45 1.6 3.2 0.00 0.00 0.00 76 1018.2
20260504040658 17 45 0.0 4.8 0.00 0.00 0.00 76 1018.2
20260504040522 17 45 1.6 6.4 0.00 0.00 0.00 75 1018.2
20260504040429 17 45 1.6 6.4 0.00 0.00 0.00 75 1018.2
20260504035157 17 45 0.0 3.2 0.00 0.00 0.00 75 1018.4
20260504034654 17 45 0.0 3.2 0.00 0.00 0.00 78 1018.5
20260504034155 17 45 0.0 1.6 0.00 0.00 0.00 79 1018.6
20260504033910 16 45 0.0 1.6 0.00 0.00 0.00 81 1018.6
20260504033148 16 45 0.0 1.6 0.00 0.00 0.00 83 1018.7
20260504032648 16 45 0.0 0.0 0.00 0.00 0.00 83 1018.5
20260504032148 16 45 0.0 0.0 0.00 0.00 0.00 82 1018.4
20260504031649 16 45 0.0 0.0 0.00 0.00 0.00 82 1018.5
20260504031148 17 45 0.0 0.0 0.00 0.00 0.00 79 1018.4
20260504030649 17 45 0.0 0.0 0.00 0.00 0.00 79 1018.5
20260504030151 17 45 0.0 0.0 0.00 0.00 0.00 79 1018.5
20260504025649 17 45 0.0 0.0 0.00 0.00 0.00 81 1018.4
20260504025150 17 45 0.0 0.0 0.00 0.00 0.00 81 1018.4
20260504024645 17 45 0.0 0.0 0.00 0.00 0.00 80 1018.4
20260504024145 17 45 0.0 0.0 0.00 0.00 0.00 79 1018.3
20260504023645 17 45 0.0 0.0 0.00 0.00 0.00 79 1018.3
20260504023144 17 45 0.0 0.0 0.00 0.00 0.00 78 1018.3